This is the latest recevied weather packets stored in our database for station/object 4S6DRJ-13. If no packets are shown the sender has not sent any weather packets the latest 10 day(s).
| Time | Temp. | Humidity | Pressure | Rain* | Wind** | Luminosity | Snow |
|---|---|---|---|---|---|---|---|
| 1787606420 | 25.56° C | 90% | 1009.5 hPa | 0.25 mm | 1.34 m/s, 159° | 0 W/m² | - |
| 1787606360 | 25.56° C | 90% | 1009.2 hPa | 0 mm | 1.34 m/s, 162° | 0 W/m² | - |
| 1787606298 | 25.56° C | 90% | 1009.3 hPa | 0 mm | 1.79 m/s, 103° | 0 W/m² | - |
| 1787606237 | 25.56° C | 90% | 1009.2 hPa | 0 mm | 2.24 m/s, 144° | 0 W/m² | - |
| 1787606177 | 25.56° C | 90% | 1009.2 hPa | 0 mm | 1.34 m/s, 112° | 0 W/m² | - |
| 1787606115 | 25.56° C | 90% | 1009.3 hPa | 0 mm | 1.34 m/s, 127° | 0 W/m² | - |
| 1787606054 | 25.56° C | 90% | 1009.1 hPa | 0 mm | 0.89 m/s, 172° | 0 W/m² | - |
| 1787605993 | 25.56° C | 90% | 1009.2 hPa | 0 mm | 1.34 m/s, 154° | 0 W/m² | - |
| 1787605932 | 25.56° C | 90% | 1009.4 hPa | 0 mm | 1.34 m/s, 122° | 0 W/m² | - |
| 1787605871 | 25.56° C | 90% | 1009.2 hPa | 0 mm | 1.34 m/s, 164° | 0 W/m² | - |
| 1787605810 | 25.56° C | 89% | 1009.4 hPa | 0 mm | 2.24 m/s, 151° | 0 W/m² | - |
| 1787605750 | 25.56° C | 89% | 1009.3 hPa | 0 mm | 1.79 m/s, 131° | 0 W/m² | - |
| 1787605688 | 25.56° C | 89% | 1009.2 hPa | 0 mm | 0.89 m/s, 152° | 0 W/m² | - |
| 1787605627 | 25.56° C | 89% | 1009.2 hPa | 0 mm | 0.89 m/s, 69° | 0 W/m² | - |
| 1787605566 | 25.56° C | 89% | 1009.4 hPa | 0 mm | 0.89 m/s, 165° | 0 W/m² | - |
| 1787605505 | 25.56° C | 89% | 1009.3 hPa | 0 mm | 0.89 m/s, 171° | 0 W/m² | - |
| 1787605444 | 25.56° C | 89% | 1009.3 hPa | 0 mm | 1.34 m/s, 154° | 0 W/m² | - |
| 1787605383 | 25.56° C | 89% | 1009.3 hPa | 0 mm | 1.79 m/s, 111° | 0 W/m² | - |
| 1787605323 | 25.56° C | 89% | 1009.3 hPa | 0 mm | 1.34 m/s, 174° | 0 W/m² | - |
| 1787605261 | 25.56° C | 89% | 1009.3 hPa | 0 mm | 0.89 m/s, 209° | 0 W/m² | - |
| 1787605200 | 25.56° C | 89% | 1009.5 hPa | 0 mm | 1.34 m/s, 209° | 0 W/m² | - |
| 1787605140 | 25.56° C | 89% | 1009.3 hPa | 0 mm | 2.24 m/s, 162° | 0 W/m² | - |
| 1787605078 | 25.56° C | 90% | 1009.4 hPa | 0 mm | 0 m/s | 0 W/m² | - |
| 1787605018 | 25.56° C | 90% | 1009.4 hPa | 0 mm | 0.89 m/s, 119° | 0 W/m² | - |
| 1787604956 | 25.56° C | 90% | 1009.4 hPa | 0 mm | 0.89 m/s, 126° | 0 W/m² | - |
* Rain latest hour (hover to see other rain measurements)
** Current wind speed in m/s (hover to see current wind gust speed)